1536051600.56,41730,19.0,73888.8,7.05,6.57,6.47,0,*7F
1536051601.82,41731,19.0,73888.0,7.07,6.43,6.35,0,*7C
1536051603.0,41732,19.0,73888.5,7.05,6.33,6.21,0,*7F
1536051604.21,41733,19.0,73886.5,7.05,6.47,6.33,0,*7E
1536051605.42,41734,19.0,73888.8,7.03,6.33,6.21,0,*7F
1536051606.65,41735,19.0,73886.8,7.03,6.33,6.13,0,*7F
1536051607.89,41736,19.0,73886.8,7.03,6.03,5.93,0,*74
1536051609.09,41737,19.0,73892.0,7.05,5.99,5.89,0,*78
1536051610.3,41738,19.0,73888.8,6.99,5.99,5.95,0,*7E
1536051611.53,41739,19.0,73890.5,6.99,5.99,5.89,0,*72
1536051612.7,41740,19.0,73890.8,6.97,6.07,5.95,0,*7B
1536051613.9,41741,19.0,73888.8,6.97,6.17,6.07,0,*73
1536051615.11,41742,19.0,73892.8,6.99,6.29,6.21,0,*77
1536051616.37,41743,19.0,73894.0,6.99,6.57,6.47,0,*7F
1536051617.62,41744,19.0,73890.3,6.99,6.57,6.47,0,*78
1536051618.88,41745,19.0,73890.3,6.99,6.57,6.43,0,*7D
1536051620.13,41746,19.0,73892.5,6.99,6.53,6.43,0,*7A
1536051621.39,41747,19.0,73890.5,6.99,6.57,6.47,0,*7B
1536051622.65,41748,19.0,73888.0,6.99,6.47,6.35,0,*70
1536051623.91,41749,19.0,73890.8,6.99,6.53,6.35,0,*74
1536051625.17,41750,19.0,73888.8,6.99,6.47,6.35,0,*79
1536051626.38,41751,19.0,73888.0,6.99,6.21,5.99,0,*7D
1536051627.61,41752,19.0,73890.8,6.99,5.77,5.67,0,*7F
1536051628.83,41753,19.0,73892.0,6.99,5.77,5.67,0,*7E
1536051630.06,41754,19.0,73890.0,6.99,6.17,5.95,0,*71
1536051631.25,41755,19.0,73888.0,6.97,6.25,6.03,0,*73
1536051632.46,41756,19.0,73886.0,6.97,6.03,5.93,0,*7E
1536051633.63,41757,19.0,73890.5,6.97,5.63,5.63,0,*75
1536051634.85,41758,19.0,73888.3,6.97,5.81,5.73,0,*77
1536051636.03,41759,19.0,73890.3,6.97,6.25,6.25,0,*7B
1536051637.21,41760,19.0,73890.0,6.93,6.11,5.99,0,*76
1536051638.45,41761,19.0,73890.8,6.95,6.13,6.03,0,*73
1536051639.65,41762,19.0,73890.8,6.97,6.39,6.33,0,*79
1536051640.87,41763,19.0,73886.5,6.97,6.17,5.93,0,*7D
1536051642.07,41764,19.0,73886.3,6.93,5.77,5.59,0,*7D
1536051643.32,41765,19.0,73888.0,6.95,5.93,5.73,0,*78
1536051644.55,41766,19.0,73890.0,6.93,5.93,5.77,0,*79
1536051645.76,41767,19.0,73886.5,6.93,6.13,5.99,0,*73
1536051646.97,41768,19.0,73892.5,6.93,6.35,6.25,0,*7C
1536051648.18,41769,19.0,73886.3,6.93,6.35,6.25,0,*7D
1536051649.41,41770,19.0,73884.5,6.93,6.13,5.93,0,*7F
1536051650.63,41771,19.0,73888.5,6.93,6.17,5.93,0,*7A
1536051651.84,41772,19.0,73884.8,6.95,6.29,6.07,0,*7C
1536051653.06,41773,19.0,73890.5,6.95,6.17,6.07,0,*70
1536051654.29,41774,19.0,73888.5,6.95,6.29,6.17,0,*7B
1536051655.5,41775,19.0,73888.0,6.93,6.13,6.03,0,*70
1536051656.7,41776,19.0,73890.3,6.93,6.21,6.13,0,*73
1536051657.91,41777,19.0,73888.5,6.93,6.25,6.13,0,*76
1536051659.09,41778,19.0,73888.0,6.93,6.29,6.21,0,*74
1536051660.33,41779,19.0,73890.8,6.91,6.35,6.21,0,*7A
1536051661.56,41780,19.0,73890.0,6.93,6.39,6.35,0,*77
1536051662.82,41781,19.0,73890.8,6.95,6.51,6.39,0,*72
1536051664.0,41782,19.0,73888.8,6.93,6.25,6.11,0,*7E
1536051665.26,41783,19.0,73888.0,6.95,6.13,5.93,0,*75
1536051666.51,41784,19.0,73890.8,6.91,5.89,5.77,0,*7C
1536051667.72,41785,19.0,73888.8,6.93,5.89,5.71,0,*79
1536051668.92,41786,19.0,73890.0,6.89,5.77,5.63,0,*73
1536051670.15,41787,19.0,73888.5,6.89,5.89,5.73,0,*72
1536051671.35,41788,19.0,73890.5,6.89,5.95,5.77,0,*74
1536051672.58,41789,19.0,73890.5,6.89,5.85,5.73,0,*70
1536051673.83,41790,19.0,73890.0,6.91,5.89,5.77,0,*79
1536051675.05,41791,19.0,73890.8,6.89,6.25,6.17,0,*71
1536051676.25,41792,19.0,73888.3,6.89,6.17,6.07,0,*72
1536051677.48,41793,19.0,73890.0,6.89,5.89,5.73,0,*77
1536051678.67,41794,19.0,73888.0,6.89,5.55,5.45,0,*74
1536051679.86,41795,19.0,73890.0,6.89,6.11,5.95,0,*7B
1536051681.04,41796,19.0,73886.8,6.89,6.11,5.95,0,*78
1536051682.28,41797,19.0,73892.5,6.91,6.21,6.13,0,*7E
1536051683.53,41798,19.0,73890.5,6.87,6.13,5.93,0,*7C
1536051684.76,41799,19.0,73890.5,6.87,5.81,5.63,0,*7A
1536051685.99,41800,19.0,73892.0,6.87,6.21,6.13,0,*78
1536051687.23,41801,19.0,73892.8,6.87,6.03,5.85,0,*75
1536051688.44,41802,19.0,73890.0,6.87,5.71,5.59,0,*71
1536051689.69,41803,19.0,73890.5,6.87,5.73,5.51,0,*7A
1536051690.89,41804,19.0,73888.5,6.89,5.45,5.27,0,*77
1536051692.06,41805,19.0,73890.8,6.85,5.71,5.63,0,*7D
1536051693.27,41806,19.0,73888.5,6.85,6.03,5.93,0,*77
1536051694.48,41807,19.0,73890.3,6.85,6.33,6.13,0,*7E
1536051695.68,41808,19.0,73888.8,6.85,5.81,5.63,0,*7F
1536051696.88,41809,19.0,73888.0,6.85,6.13,6.07,0,*77
1536051698.09,41810,19.0,73886.0,6.85,6.21,6.13,0,*7B
1536051699.3,41811,19.0,73888.5,6.85,6.13,6.03,0,*7A
1536051700.52,41812,19.0,73890.0,6.85,5.73,5.51,0,*78
1536051701.69,41813,19.0,73890.5,6.83,5.45,5.29,0,*75
1536051702.9,41814,19.0,73890.0,6.81,5.33,5.23,0,*7B
1536051704.09,41815,19.0,73892.5,6.81,5.45,5.33,0,*7A
1536051705.29,41816,19.0,73888.0,6.81,5.59,5.45,0,*75
1536051706.51,41817,19.0,73890.5,6.81,6.11,5.89,0,*7B
1536051707.74,41818,19.0,73890.5,6.81,6.13,6.03,0,*77
1536051708.97,41819,19.0,73892.5,6.81,6.13,6.03,0,*76
1536051710.2,41820,19.0,73888.3,6.81,6.17,6.11,0,*7B
1536051711.43,41821,19.0,73888.5,6.81,5.81,5.71,0,*73
1536051712.64,41822,19.0,73888.8,6.81,6.03,5.99,0,*7F
1536051713.86,41823,19.0,73888.5,6.81,6.17,6.11,0,*78
1536051715.07,41824,19.0,73890.0,6.83,6.03,5.93,0,*71
1536051716.3,41825,19.0,73888.5,6.81,6.17,6.11,0,*7E
1536051717.53,41826,19.0,73890.5,6.81,6.25,6.17,0,*7A
1536051718.76,41827,19.0,73888.8,6.83,6.35,6.17,0,*78
1536051719.97,41828,19.0,73888.0,6.83,6.47,6.29,0,*7F
1536051721.17,41829,19.0,73890.0,6.83,6.39,6.29,0,*77
1536051722.38,41830,19.0,73890.0,6.83,6.13,6.11,0,*7C
1536051723.61,41831,19.0,73886.3,6.81,6.25,6.17,0,*7C
1536051724.82,41832,19.0,73888.0,6.83,6.35,6.25,0,*7D
1536051726.05,41833,19.0,73884.8,6.81,6.35,6.25,0,*7E
1536051727.25,41834,19.0,73888.3,6.85,5.95,5.93,0,*7A
1536051728.46,41835,19.0,73888.8,6.83,6.11,5.93,0,*72
1536051729.69,41836,19.0,73888.5,6.81,6.17,6.03,0,*7F
1536051730.92,41837,19.0,73888.3,6.83,5.93,5.77,0,*73
1536051732.14,41838,19.0,73890.3,6.81,6.17,6.11,0,*72
1536051733.37,41839,19.0,73884.0,6.81,6.25,6.17,0,*74
1536051734.57,41840,19.0,73884.8,6.83,6.39,6.25,0,*74
1536051735.78,41841,19.0,73884.5,6.85,6.43,6.29,0,*72
1536051737.03,41842,19.0,73888.3,6.81,6.13,5.89,0,*79
1536051738.26,41843,19.0,73888.0,6.81,6.13,6.11,0,*7A
1536051739.49,41844,19.0,73888.5,6.83,6.47,6.35,0,*78
1536051740.75,41845,19.0,73890.3,6.81,6.51,6.35,0,*7C
1536051741.96,41846,19.0,73888.8,6.83,6.25,6.13,0,*7A
1536051743.17,41847,19.0,73888.5,6.83,6.03,5.93,0,*74
1536051744.4,41848,19.0,73886.8,6.81,6.03,5.93,0,*79
1536051745.61,41849,19.0,73882.8,6.83,5.81,5.59,0,*75
1536051746.82,41850,19.0,73886.5,6.81,5.55,5.45,0,*7B
1536051748.05,41851,19.0,73884.0,6.81,6.03,5.77,0,*7B
1536051749.26,41852,19.0,73890.5,6.81,6.11,6.03,0,*7B
1536051750.46,41853,19.0,73886.0,6.81,6.25,6.11,0,*7E
1536051751.69,41854,19.0,73888.3,6.81,6.25,6.13,0,*7B
1536051752.91,41855,19.0,73890.8,6.81,6.39,6.25,0,*72
1536051754.14,41856,19.0,73888.5,6.83,6.57,6.39,0,*76
1536051755.4,41857,19.0,73892.0,6.81,6.47,6.35,0,*78
1536051756.63,41858,19.0,73890.8,6.81,6.29,6.17,0,*7F
1536051757.86,41859,19.0,73888.3,6.81,6.13,6.03,0,*72
1536051759.09,41860,19.0,73890.8,6.81,6.13,6.11,0,*7B
1536051760.32,41861,19.0,73888.0,6.81,6.17,6.03,0,*7D
1536051761.55,41862,19.0,73888.5,6.81,6.13,5.99,0,*7A
1536051762.78,41863,19.0,73888.8,6.81,6.03,5.81,0,*73
1536051763.98,41864,19.0,73890.3,6.81,5.71,5.67,0,*7A
1536051765.23,41865,19.0,73890.3,6.81,5.93,5.81,0,*7F
1536051766.46,41866,19.0,73888.3,6.81,5.99,5.81,0,*76
1536051767.69,41867,19.0,73888.0,6.81,5.81,5.59,0,*7B
1536051768.88,41868,19.0,73890.8,6.79,6.07,5.89,0,*73
1536051770.09,41869,19.0,73888.3,6.75,6.03,5.85,0,*76
1536051771.3,41870,19.0,73890.3,6.79,6.35,6.25,0,*7E
1536051772.54,41871,19.0,73890.8,6.81,6.17,6.13,0,*7D
1536051773.72,41872,19.0,73886.3,6.79,5.99,5.99,0,*7D
1536051774.91,41873,19.0,73888.0,6.75,6.21,6.11,0,*73
1536051776.13,41874,19.0,73890.3,6.81,6.39,6.29,0,*7D
1536051777.36,41875,19.0,73888.8,6.81,6.17,6.11,0,*7B
1536051778.56,41876,19.0,73890.0,6.79,6.33,6.13,0,*7B
1536051779.76,41877,19.0,73890.3,6.79,5.99,5.85,0,*75
1536051780.93,41878,19.0,73890.3,6.79,5.67,5.63,0,*73
1536051782.1,41879,19.0,73890.5,6.79,6.07,5.95,0,*7E
1536051783.27,41880,19.0,73890.5,6.79,6.07,6.07,0,*70
1536051784.45,41881,19.0,73890.8,6.75,6.11,6.07,0,*7A
1536051785.63,41882,19.0,73892.0,6.79,6.11,6.03,0,*71
1536051786.81,41883,19.0,73888.5,6.79,6.21,6.11,0,*70
1536051788.02,41884,19.0,73890.3,6.75,6.03,5.93,0,*72
1536051789.21,41885,19.0,73888.0,6.79,5.51,5.45,0,*70
1536051790.39,41886,19.0,73886.3,6.75,5.71,5.59,0,*70
1536051791.59,41887,19.0,73888.8,6.75,5.81,5.63,0,*77
1536051792.8,41888,19.0,73888.8,6.75,6.03,5.93,0,*7E
1536051794.01,41889,19.0,73888.3,6.75,5.73,5.59,0,*7D
1536051795.22,41890,19.0,73890.0,6.75,5.81,5.59,0,*78
1536051796.43,41891,19.0,73890.3,6.75,6.03,5.93,0,*76
1536051797.64,41892,19.0,73892.0,6.75,5.93,5.71,0,*73
1536051798.87,41893,19.0,73890.5,6.73,5.73,5.63,0,*79
1536051800.1,41894,19.0,73892.0,6.73,6.03,5.93,0,*75
1536051801.31,41895,19.0,73890.3,6.73,6.07,6.03,0,*7A
1536051802.53,41896,19.0,73894.3,6.73,6.07,5.93,0,*73
1536051803.76,41897,19.0,73890.5,6.73,5.95,5.81,0,*79
1536051804.99,41898,19.0,73888.0,6.73,6.03,5.93,0,*79
1536051806.21,41899,19.0,73884.8,6.73,6.29,6.11,0,*79
1536051807.44,41900,19.0,73888.8,6.73,6.29,6.17,0,*7E
1536051808.67,41901,19.0,73888.0,6.73,6.21,6.17,0,*77
1536051809.93,41902,19.0,73888.3,6.73,5.93,5.81,0,*72
1536051811.13,41903,19.0,73884.5,6.75,5.95,5.81,0,*73
1536051812.34,41904,19.0,73888.5,6.73,6.11,6.03,0,*74
1536051813.57,41905,19.0,73886.0,6.73,6.39,6.29,0,*77
1536051814.77,41906,19.0,73890.5,6.79,6.43,6.33,0,*78
1536051815.98,41907,19.0,73888.3,6.75,6.33,6.17,0,*74
1536051817.21,41908,19.0,73886.0,6.73,6.43,6.29,0,*77
1536051818.42,41909,19.0,73884.8,6.75,6.39,6.21,0,*75
1536051819.63,41910,19.0,73886.0,6.75,6.03,5.81,0,*7D
1536051820.84,41911,19.0,73884.5,6.75,5.95,5.81,0,*70
1536051822.02,41912,19.0,73884.8,6.75,6.21,6.11,0,*75
1536051823.22,41913,19.0,73886.0,6.75,6.17,6.07,0,*76
1536051824.4,41914,19.0,73884.5,6.79,6.11,6.07,0,*7B
1536051825.58,41915,19.0,73888.0,6.75,6.21,6.11,0,*72
1536051826.78,41916,19.0,73890.3,6.75,6.17,6.07,0,*73
1536051827.96,41917,19.0,73888.0,6.75,6.07,6.07,0,*73
1536051829.16,41918,19.0,73888.0,6.75,6.17,6.11,0,*7A
1536051830.39,41919,19.0,73888.3,6.73,6.39,6.29,0,*7A
1536051831.59,41920,19.0,73888.0,6.75,6.17,6.07,0,*76
1536051832.8,41921,19.0,73890.8,6.75,6.03,5.93,0,*7C
1536051834.0,41922,19.0,73888.0,6.75,6.17,6.07,0,*74
1536051835.23,41923,19.0,73890.0,6.73,6.17,6.07,0,*73
1536051836.46,41924,19.0,73888.8,6.73,6.17,6.11,0,*73
1536051837.64,41925,19.0,73892.3,6.75,6.29,6.21,0,*7A
1536051838.83,41926,19.0,73890.0,6.75,6.21,6.11,0,*72
1536051840.01,41927,19.0,73890.5,6.75,6.11,6.03,0,*73
1536051841.2,41928,19.0,73894.0,6.75,6.21,6.11,0,*7C
1536051842.4,41929,19.0,73892.3,6.75,6.17,6.11,0,*78
1536051843.59,41930,19.0,73892.8,6.75,6.07,6.03,0,*72
1536051844.77,41931,19.0,73890.3,6.75,6.11,6.03,0,*74
1536051846.0,41932,19.0,73890.5,6.73,5.95,5.81,0,*77
1536051847.2,41933,19.0,73888.8,6.73,6.07,5.95,0,*7B
1536051848.41,41934,19.0,73886.8,6.75,6.17,6.11,0,*74
1536051849.58,41935,19.0,73888.3,6.75,6.07,5.95,0,*7B
1536051850.78,41936,19.0,73888.8,6.73,5.59,5.41,0,*7F
1536051852.01,41937,19.0,73884.8,6.71,5.81,5.77,0,*7C
1536051853.24,41938,19.0,73886.3,6.73,6.03,5.81,0,*71
1536051854.45,41939,19.0,73890.3,6.73,6.07,5.99,0,*7D
1536051855.63,41940,19.0,73890.8,6.71,6.07,6.03,0,*71
1536051856.85,41941,19.0,73890.0,6.73,6.07,5.93,0,*78
1536051858.09,41942,19.0,73886.3,6.71,5.89,5.81,0,*7F
1536051859.3,41943,19.0,73888.0,6.71,6.13,5.99,0,*77
1536051860.5,41944,19.0,73890.0,6.73,6.07,6.03,0,*77
1536051861.71,41945,19.0,73890.8,6.71,6.03,5.93,0,*7A
1536051862.91,41946,19.0,73888.5,6.71,6.17,6.07,0,*72
1536051864.14,41947,19.0,73890.5,6.73,6.43,6.29,0,*7C
1536051865.33,41948,19.0,73888.8,6.71,6.03,6.03,0,*7D
1536051866.54,41949,19.0,73890.5,6.71,5.99,5.89,0,*7D
1536051867.77,41950,19.0,73890.8,6.71,5.93,5.81,0,*77
1536051868.98,41951,19.0,73890.3,6.71,6.03,5.93,0,*7F
1536051870.19,41952,19.0,73890.3,6.73,6.21,6.11,0,*77
1536051871.4,41953,19.0,73890.3,6.71,6.29,6.17,0,*7A
1536051872.63,41954,19.0,73888.8,6.73,6.39,6.29,0,*73
1536051873.85,41955,19.0,73890.8,6.73,6.39,6.29,0,*72
1536051875.08,41956,19.0,73888.8,6.73,6.39,6.29,0,*71
1536051876.26,41957,19.0,73888.0,6.71,6.29,6.25,0,*7F
1536051877.47,41958,19.0,73888.5,6.71,6.25,6.17,0,*7D
1536051878.71,41959,19.0,73888.3,6.73,6.29,6.17,0,*72
1536051879.94,41960,19.0,73890.0,6.73,6.43,6.29,0,*79
1536051881.16,41961,19.0,73888.8,6.73,6.39,6.29,0,*75
1536051882.37,41962,19.0,73890.3,6.71,6.25,6.13,0,*70
1536051883.59,41963,19.0,73890.3,6.73,6.17,6.07,0,*77
1536051884.82,41964,19.0,73884.5,6.73,5.95,5.81,0,*74
1536051886.03,41965,19.0,73888.8,6.73,6.07,6.03,0,*74
1536051887.24,41966,19.0,73890.8,6.71,6.29,6.17,0,*7C
1536051888.45,41967,19.0,73888.8,6.73,6.33,6.21,0,*71
1536051889.66,41968,19.0,73890.3,6.71,6.29,6.17,0,*72
1536051890.88,41969,19.0,73888.5,6.73,6.39,6.29,0,*7D
1536051892.12,41970,19.0,73888.3,6.73,6.43,6.33,0,*73
1536051893.33,41971,19.0,73888.0,6.73,6.33,6.21,0,*76
1536051894.51,41972,19.0,73884.8,6.75,6.33,6.21,0,*73
1536051895.72,41973,19.0,73890.5,6.75,6.39,6.21,0,*78
1536051896.95,41974,19.0,73890.8,6.73,6.21,6.17,0,*75
1536051898.15,41975,19.0,73890.8,6.73,6.11,6.07,0,*76
1536051899.34,41976,19.0,73888.3,6.71,6.03,6.03,0,*70
1536051900.58,41977,19.0,73888.3,6.73,6.03,5.93,0,*79
1536051901.79,41978,19.0,73888.0,6.73,6.03,6.03,0,*7C
1536051902.99,41979,19.0,73890.8,6.73,6.07,5.95,0,*75
1536051904.24,41980,19.0,73892.5,6.73,5.85,5.73,0,*72
1536051905.45,41981,19.0,73890.5,6.71,5.81,5.67,0,*70
1536051906.67,41982,19.0,73892.3,6.71,5.81,5.77,0,*72
1536051907.88,41983,19.0,73888.8,6.71,5.81,5.67,0,*72
1536051909.11,41984,19.0,73886.3,6.71,5.93,5.77,0,*77
1536051910.37,41985,19.0,73886.8,6.69,5.93,5.81,0,*76
1536051911.62,41986,19.0,73888.0,6.69,5.89,5.77,0,*77
1536051912.82,41987,19.0,73890.3,6.71,5.99,5.89,0,*7F
1536051914.05,41988,19.0,73888.3,6.69,6.17,6.07,0,*79
1536051915.3,41989,19.0,73888.5,6.69,6.39,6.35,0,*75
1536051916.53,41990,19.0,73890.5,6.69,6.39,6.29,0,*70
1536051917.78,41991,19.0,73888.8,6.69,6.61,6.51,0,*73
1536051919.02,41992,19.0,73890.0,6.71,6.57,6.47,0,*7B
1536051920.25,41993,19.0,73888.0,6.71,6.61,6.51,0,*78
1536051921.48,41994,19.0,73890.5,6.71,6.57,6.47,0,*7D
1536051922.72,41995,19.0,73890.5,6.71,6.51,6.47,0,*7A
1536051923.98,41996,19.0,73890.0,6.73,6.51,6.43,0,*7F
1536051925.21,41997,19.0,73892.5,6.75,6.47,6.39,0,*72
1536051926.42,41998,19.0,73890.5,6.71,6.39,6.25,0,*7D
1536051927.63,41999,19.0,73890.5,6.73,6.33,6.21,0,*70
1536051928.86,42000,19.0,73888.3,6.73,6.17,6.11,0,*7F
1536051930.08,42001,19.0,73886.8,6.73,6.17,6.07,0,*79
1536051931.29,42002,19.0,73890.5,6.71,6.03,5.89,0,*78
1536051932.5,42003,19.0,73890.5,6.73,6.07,5.95,0,*72
1536051933.73,42004,19.0,73890.8,6.73,6.21,6.17,0,*78
1536051934.96,42005,19.0,73888.8,6.69,6.13,6.03,0,*76
1536051936.16,42006,19.0,73888.0,6.71,6.17,6.07,0,*7C
1536051937.37,42007,19.0,73888.0,6.71,6.39,6.25,0,*71
1536051938.58,42008,19.0,73890.5,6.71,6.35,6.25,0,*72
1536051939.79,42009,19.0,73890.5,6.71,6.29,6.13,0,*7B
1536051941.0,42010,19.0,73890.5,6.71,6.03,5.93,0,*70
1536051942.2,42011,19.0,73890.5,6.73,6.11,6.07,0,*7E
1536051943.41,42012,19.0,73888.3,6.71,6.13,6.03,0,*79
1536051944.62,42013,19.0,73890.5,6.71,6.29,6.17,0,*74
1536051945.85,42014,19.0,73888.3,6.73,6.29,6.17,0,*71
1536051947.06,42015,19.0,73892.0,6.71,6.13,6.03,0,*7E
1536051948.27,42016,19.0,73890.8,6.71,6.29,6.17,0,*71
1536051949.48,42017,19.0,73892.0,6.71,6.13,6.07,0,*78
1536051950.68,42018,19.0,73888.8,6.71,6.25,6.13,0,*77
1536051951.9,42019,19.0,73888.0,6.71,6.35,6.25,0,*72
1536051953.13,42020,19.0,73890.8,6.73,6.43,6.29,0,*77
1536051954.38,42021,19.0,73888.0,6.73,6.39,6.17,0,*76
1536051955.61,42022,19.0,73892.3,6.73,6.33,6.17,0,*7F
1536051956.82,42023,19.0,73894.8,6.71,6.13,6.03,0,*7B
1536051958.03,42024,19.0,73890.5,6.71,6.17,6.07,0,*7C
1536051959.23,42025,19.0,73890.8,6.71,6.17,6.03,0,*79
1536051960.46,42026,19.0,73894.8,6.71,6.17,6.13,0,*7B
1536051961.65,42027,19.0,73890.0,6.71,6.03,6.03,0,*7E
1536051962.85,42028,19.0,73892.3,6.71,6.07,5.93,0,*7F
1536051964.03,42029,19.0,73888.0,6.71,6.07,5.99,0,*74
1536051965.22,42030,19.0,73888.0,6.71,6.03,5.99,0,*78
1536051966.42,42031,19.0,73890.3,6.71,5.77,5.67,0,*78
1536051967.63,42032,19.0,73892.3,6.71,5.77,5.59,0,*76
1536051968.86,42033,19.0,73892.5,6.69,5.89,5.67,0,*72
1536051970.09,42034,19.0,73890.0,6.69,5.81,5.67,0,*7D
1536051971.28,42035,19.0,73888.0,6.67,6.11,5.95,0,*75
1536051972.47,42036,19.0,73892.8,6.67,6.03,5.99,0,*79
1536051973.67,42037,19.0,73892.0,6.67,5.77,5.63,0,*7D
1536051974.9,42038,19.0,73892.3,6.69,5.71,5.55,0,*7F
1536051976.1,42039,19.0,73894.5,6.67,5.73,5.63,0,*77
1536051977.31,42040,19.0,73890.0,6.67,5.63,5.51,0,*79
1536051978.54,42041,19.0,73890.8,6.67,5.85,5.73,0,*70
1536051979.75,42042,19.0,73890.0,6.67,5.95,5.85,0,*7B
1536051980.94,42043,19.0,73890.3,6.67,6.21,6.03,0,*7B
1536051982.13,42044,19.0,73890.5,6.67,6.25,6.03,0,*78
1536051983.32,42045,19.0,73888.3,6.67,6.11,5.99,0,*7E
1536051984.53,42046,19.0,73888.8,6.69,6.29,6.07,0,*7C
1536051985.74,42047,19.0,73888.8,6.67,6.33,6.13,0,*7D
1536051986.95,42048,19.0,73892.0,6.67,6.35,6.25,0,*71
1536051988.16,42049,19.0,73888.3,6.67,6.25,6.13,0,*74
1536051989.36,42050,19.0,73890.5,6.67,6.03,5.95,0,*75
1536051990.58,42051,19.0,73890.3,6.69,5.99,5.81,0,*7F
1536051991.79,42052,19.0,73892.0,6.67,5.85,5.63,0,*73
1536051993.0,42053,19.0,73888.8,6.65,5.71,5.59,0,*72
1536051994.21,42054,19.0,73892.8,6.67,5.85,5.67,0,*71
1536051995.44,42055,19.0,73894.5,6.67,5.85,5.73,0,*75
1536051996.64,42056,19.0,73894.0,6.67,5.95,5.85,0,*7E
1536051997.85,42057,19.0,73892.3,6.65,6.21,6.11,0,*7F
1536051999.08,42058,19.0,73890.5,6.69,6.29,6.13,0,*76
1536052000.32,42059,19.0,73890.5,6.67,6.47,6.35,0,*75
1536052001.55,42060,19.0,73888.0,6.67,6.53,6.43,0,*7B
1536052002.74,42061,19.0,73890.0,6.67,6.25,6.11,0,*7C
1536052004.0,42062,19.0,73888.0,6.69,5.93,5.81,0,*75
1536052005.18,42063,19.0,73884.8,6.67,5.99,5.95,0,*75
1536052006.39,42064,19.0,73890.5,6.67,5.99,5.89,0,*7F
1536052007.6,42065,19.0,73890.3,6.67,5.99,5.89,0,*7E
1536052008.81,42066,19.0,73890.5,6.67,5.95,5.89,0,*71
1536052010.0,42067,19.0,73892.5,6.67,6.21,6.03,0,*7D
1536052011.2,42068,19.0,73894.5,6.67,6.33,6.03,0,*71
1536052012.39,42069,19.0,73892.3,6.67,6.03,5.95,0,*7F
1536052013.58,42070,19.0,73890.8,6.67,6.33,6.21,0,*78
1536052014.79,42071,19.0,73894.0,6.67,6.43,6.33,0,*7D
1536052015.98,42072,19.0,73890.5,6.67,6.21,6.11,0,*7A
1536052017.22,42073,19.0,73890.5,6.69,6.03,5.93,0,*7C
1536052018.4,42074,19.0,73892.3,6.67,5.99,5.95,0,*73
1536052019.61,42075,19.0,73890.5,6.67,6.25,6.13,0,*7B
1536052020.84,42076,19.0,73894.5,6.71,6.47,6.39,0,*73
1536052022.03,42077,19.0,73892.3,6.67,6.25,6.21,0,*78
1536052023.25,42078,19.0,73888.3,6.67,6.35,6.21,0,*76
1536052024.43,42079,19.0,73890.8,6.67,6.11,5.99,0,*71
1536052025.64,42080,19.0,73888.5,6.67,5.95,5.85,0,*75
1536052026.85,42081,19.0,73888.8,6.67,5.89,5.95,0,*78
1536052028.04,42082,19.0,73886.3,6.67,6.03,5.95,0,*7A
1536052029.25,42083,19.0,73894.0,6.67,5.95,5.85,0,*76
1536052030.44,42084,19.0,73890.8,6.67,6.03,5.95,0,*7C
1536052031.63,42085,19.0,73888.0,6.67,6.33,6.21,0,*72
1536052032.82,42086,19.0,73888.8,6.67,6.25,6.21,0,*76
1536052034.01,42087,19.0,73890.5,6.67,6.21,6.11,0,*70
1536052035.24,42088,19.0,73888.8,6.69,6.25,6.13,0,*77
1536052036.46,42089,19.0,73888.8,6.69,6.07,5.93,0,*7D
1536052037.65,42090,19.0,73892.8,6.67,6.11,5.99,0,*76
1536052038.86,42091,19.0,73892.0,6.67,5.99,5.85,0,*79
1536052040.09,42092,19.0,73892.8,6.69,5.99,5.81,0,*70
1536052041.3,42093,19.0,73892.3,6.67,6.13,6.11,0,*74
1536052042.49,42094,19.0,73892.0,6.67,6.21,6.11,0,*72
1536052043.7,42095,19.0,73894.0,6.67,6.25,6.13,0,*75
1536052044.93,42096,19.0,73892.8,6.69,6.13,6.03,0,*7C
1536052046.15,42097,19.0,73892.8,6.67,6.13,6.03,0,*73
1536052047.34,42098,19.0,73890.3,6.67,6.11,5.99,0,*7E
1536052048.54,42099,19.0,73892.3,6.67,6.11,5.89,0,*7E
1536052049.73,42100,19.0,73888.3,6.67,6.33,6.25,0,*7A
1536052050.97,42101,19.0,73890.5,6.67,6.57,6.43,0,*79
1536052052.22,42102,19.0,73892.3,6.69,6.51,6.39,0,*7F
1536052053.41,42103,19.0,73892.3,6.67,6.33,6.21,0,*7D
1536052054.63,42104,19.0,73888.3,6.67,6.43,6.33,0,*7E
1536052055.82,42105,19.0,73892.0,6.67,6.33,6.21,0,*7B
1536052057.02,42106,19.0,73890.0,6.71,6.39,6.29,0,*7D
1536052058.23,42107,19.0,73888.3,6.67,6.35,6.25,0,*7B
1536052059.46,42108,19.0,73892.3,6.69,6.39,6.25,0,*76
1536052060.69,42109,19.0,73890.0,6.69,6.47,6.29,0,*72
1536052061.95,42110,19.0,73894.5,6.69,6.61,6.47,0,*76
1536052063.19,42111,19.0,73890.0,6.69,6.61,6.57,0,*76
1536052064.45,42112,19.0,73888.0,6.69,6.61,6.47,0,*74
1536052065.71,42113,19.0,73892.0,6.69,6.51,6.39,0,*7F
1536052066.94,42114,19.0,73890.5,6.71,6.61,6.51,0,*7C
1536052068.17,42115,18.94,73884.5,6.71,6.61,6.51,0,*7D
1536052069.35,42116,19.0,73890.5,6.71,6.25,6.07,0,*7D
1536052070.59,42117,19.0,73890.5,6.73,6.03,5.85,0,*73
1536052071.82,42118,19.0,73890.5,6.73,6.03,5.93,0,*7B
1536052073.06,42119,19.0,73890.5,6.71,6.35,6.17,0,*72
1536052074.3,42120,19.0,73892.0,6.71,6.51,6.51,0,*78
1536052075.53,42121,19.0,73888.0,6.71,6.57,6.51,0,*7F
1536052076.77,42122,19.0,73890.5,6.71,6.51,6.47,0,*7D
1536052078.01,42123,19.0,73890.0,6.71,6.47,6.35,0,*7E
1536052079.21,42124,19.0,73892.8,6.71,6.39,6.29,0,*7D
1536052080.44,42125,19.0,73888.3,6.75,6.43,6.39,0,*74
1536052081.67,42126,19.0,73888.3,6.71,6.47,6.39,0,*77
1536052082.91,42127,19.0,73890.5,6.71,6.51,6.35,0,*7D
1536052084.12,42128,19.0,73892.0,6.73,6.21,6.21,0,*72
1536052085.33,42129,19.0,73892.5,6.73,6.33,6.21,0,*70
1536052086.53,42130,19.0,73894.5,6.71,6.39,6.29,0,*78
1536052087.77,42131,19.0,73892.3,6.71,6.51,6.35,0,*7A
1536052089.01,42132,19.0,73888.8,6.71,6.51,6.35,0,*79
1536052090.27,42133,19.0,73890.8,6.73,6.51,6.43,0,*7B
1536052091.5,42134,19.0,73894.0,6.71,6.57,6.35,0,*79
1536052092.75,42135,19.0,73892.0,6.73,6.53,6.51,0,*7C
1536052094.01,42136,19.0,73888.3,6.73,6.53,6.43,0,*7C
1536052095.26,42137,19.0,73890.0,6.73,6.65,6.65,0,*7C
1536052096.52,42138,19.0,73892.0,6.73,6.61,6.51,0,*70
1536052097.74,42139,19.0,73888.3,6.73,6.39,6.29,0,*73
1536052098.97,42140,19.0,73888.5,6.73,6.17,6.07,0,*7D
1536052100.17,42141,19.0,73890.5,6.79,6.43,6.21,0,*73
1536052101.42,42142,19.0,73888.8,6.73,6.53,6.43,0,*7F
1536052102.65,42143,19.0,73888.5,6.73,6.21,6.17,0,*7A
1536052103.88,42144,19.0,73892.3,6.73,6.17,6.03,0,*7D
1536052105.1,42145,19.0,73892.3,6.71,6.13,6.03,0,*7A
1536052106.33,42146,19.0,73888.8,6.73,6.29,6.17,0,*77
1536052107.54,42147,19.0,73890.5,6.73,6.33,6.21,0,*78
1536052108.77,42148,19.0,73888.3,6.73,6.03,5.85,0,*79
1536052110.01,42149,19.0,73890.0,6.73,6.03,5.93,0,*7F
1536052111.22,42150,19.0,73890.3,6.73,6.03,5.95,0,*71
1536052112.45,42151,19.0,73892.0,6.71,5.93,5.89,0,*75
1536052113.63,42152,19.0,73890.8,6.71,6.07,5.99,0,*79
1536052114.84,42153,19.0,73892.0,6.69,6.03,6.07,0,*71
1536052116.04,42154,19.0,73894.0,6.69,6.07,5.99,0,*76
1536052117.25,42155,19.0,73892.3,6.73,6.11,6.03,0,*7B
1536052118.43,42156,19.0,73892.0,6.71,6.07,5.99,0,*7D
1536052119.61,42157,19.0,73892.0,6.71,6.07,5.99,0,*7C
1536052120.83,42158,19.0,73890.3,6.69,6.03,5.99,0,*7E
1536052122.06,42159,19.0,73890.8,6.69,6.13,5.99,0,*7E
1536052123.29,42160,19.0,73890.5,6.69,6.03,5.93,0,*7F
1536052124.5,42161,19.0,73888.5,6.69,6.25,6.07,0,*74
1536052125.73,42162,19.0,73890.0,6.69,6.03,5.93,0,*7D
1536052126.95,42163,19.0,73892.5,6.69,6.03,5.99,0,*76
1536052128.19,42164,19.0,73892.5,6.69,6.17,6.13,0,*75
1536052129.4,42165,19.0,73894.5,6.69,6.29,6.29,0,*70
1536052130.66,42166,19.0,73892.3,6.69,6.51,6.39,0,*7D
1536052131.89,42167,19.0,73892.5,6.69,6.39,6.25,0,*7F
1536052133.12,42168,19.0,73892.8,6.69,6.13,6.03,0,*7C
1536052134.36,42169,19.0,73892.5,6.69,6.13,6.03,0,*7D
1536052135.55,42170,19.0,73888.8,6.67,6.03,6.03,0,*7A
1536052136.78,42171,19.0,73890.5,6.69,6.25,6.17,0,*74
1536052138.01,42172,19.0,73894.3,6.69,6.25,6.13,0,*73
1536052139.24,42173,19.0,73894.3,6.69,6.17,6.07,0,*76
1536052140.46,42174,19.0,73890.5,6.69,6.17,6.07,0,*71